Regional Weather Roundup
Issued by NWS

Home | Current Version | Previous Version | Text Only | Print | Product List | Glossary On
Versions: 1 2 3 4 5 6 7 8 9 10 11 12 13 14 15 16 17 18 19 20 21 22 23 24 25 26 27 28 29 30 31 32 33 34 35 36 37 38 39 40 41 42 43 44 45 46 47 48 49 50
000
ASUS43 KLOT 302121
RWRIL

ILLINOIS REGIONAL WEATHER ROUNDUP
NATIONAL WEATHER SERVICE CHICAGO/ROMEOVILLE IL
400 PM CDT TUE JUN 30 2015

NOTE: "FAIR" INDICATES FEW OR NO CLOUDS BELOW 12,000 FEET WITH NO
SIGNIFICANT WEATHER AND/OR OBSTRUCTIONS TO VISIBILITY.

* THESE STATIONS ARE NOT UNDER NWS QUALITY CONTROL. THEY ALSO MAY NOT
  REPORT WEATHER SUCH AS PRECIPITATION OR FOG.

ILZ001-002-007-009-015-016-024-302200-
NORTHWEST ILLINOIS

CITY           SKY/WX    TMP DP  RH WIND       PRES   REMARKS
MOLINE         PTSUNNY   81  62  52 NW13      29.84F HX  82
STERLING*      CLOUDY    81  64  57 N10       29.85R HX  82
SAVANNA*       MOSUNNY   79  60  51 NW10G16   29.85S HX  80
$$

ILZ003-004-008-010-011-017-018-302200-
NORTH CENTRAL ILLINOIS

CITY           SKY/WX    TMP DP  RH WIND       PRES   REMARKS
ROCKFORD       MOSUNNY   76  59  55 NW9       29.86S
FREEPORT*      PTSUNNY   73  62  66 NW7       29.87S
ROCHELLE*      MOSUNNY   74  62  64 NW8       29.86R
DE KALB*       PTSUNNY   73  60  65 NW10      29.86R
PERU*          MOSUNNY   78  61  55 N7        29.84S
$$

ILZ005-006-012>014-019>023-302200-
NORTHEAST ILLINOIS

CITY           SKY/WX    TMP DP  RH WIND       PRES   REMARKS
CHICAGO-OHARE  PTSUNNY   75  59  57 N14       29.82R
CHICAGO-MIDWAY PTSUNNY   78  60  53 NW7       29.81S
AURORA         MOSUNNY   77  61  57 NW10      29.84S
LANSING*       SUNNY     74  59  60 NE8       29.82F
JOLIET*        MOSUNNY   78  64  62 N8        29.83R
WAUKEGAN       PTSUNNY   70  61  73 NE12      29.85R
DUPAGE AIRPORT MOSUNNY   74  60  61 N10       29.83R
KANKAKEE*      PTSUNNY   78  64  62 W14       29.82S HX  80
WHEELING       CLOUDY    68  58  70 NE16      29.84R
MORRIS*        PTSUNNY   78  64  63 NW6G20    29.81S
ROMEOVILLE*    MOSUNNY   75  60  59 N10       29.82S
NORTHERLY ISL    N/A     66  60  81 E3          N/A
$$

LMZ740>746-302200-
SOUTHERN LAKE MICHIGAN

STATION/POSITION SKY/WX   TEMP    WIND        PRES    VSBY  WAVE
                          AIR SEA DIR/SP/G                  HT/PER
                          (F)     (DEG/KT/KT) (MB)    (MI)  (FT/S)
HARRISON CRIB              66      90/  1/  5   N/A
BURNHAM HARBOR             66     100/  3/  5   N/A
CALUMET HARBOR             66      50/  6/  7   N/A
BURNS HARBOR               66      80/  8/  9 1010.8R
MICHIGAN CITY              63      30/  4/  5   N/A
MICHIGAN CITY 6N           64 66   90/  2/  4   N/A           1
ST. JOSEPH                 65 67                N/A           1/ 3
$$

ILZ025>027-034>036-040-047-049-050-058-095>099-302200-
WEST-CENTRAL ILLINOIS

CITY           SKY/WX    TMP DP  RH WIND       PRES   REMARKS
QUINCY         MOSUNNY   81  67  62 NW10      29.87S HX  83
GALESBURG*     PTSUNNY   80  64  57 NW8       29.86R HX  82
MACOMB*        SUNNY     82  66  60 NW8       29.87S HX  84
JACKSONVILLE*  PTSUNNY   83  70  65 NW6G16    29.85S HX  87
PITTSFIELD*    SUNNY     82  66  57 W8        29.88S HX  84
$$

ILZ028>032-037-038-041>044-048-051>054-059>061-302200-
CENTRAL ILLINOIS

CITY           SKY/WX    TMP DP  RH WIND       PRES   REMARKS
PONTIAC        MOSUNNY   80  65  59 W10       29.84S HX  81
BLOOMINGTON    PTSUNNY   80  65  60 NW12      29.85S HX  82
DECATUR        PTSUNNY   82  67  60 W12       29.82F HX  84
PEORIA         MOSUNNY   83  65  54 N7        29.84S HX  85
LACON*         MOSUNNY   79  62  55 NW7       29.83S HX  80
LINCOLN*       MOSUNNY   83  66  57 NW5       29.83S HX  85
SPRINGFIELD    SUNNY     84  68  58 W14       29.84S HX  87
TAYLORVILLE    PTSUNNY   81  68  65 W12       29.84S HX  83
$$

ILZ033-039-045-046-055>057-062-063-302200-
EAST-CENTRAL ILLINOIS

CITY           SKY/WX    TMP DP  RH WIND       PRES   REMARKS
CHAMPAIGN      MOSUNNY   81  67  62 W9        29.83F HX  83
DANVILLE*      MOSUNNY   80  66  63 NW10      29.79F HAZE    HX  82
RANTOUL*       MOSUNNY   82  66  59 NW7       29.83S HX  84
MATTOON        MOSUNNY   81  66  60 W12       29.82F HX  83
PARIS*         MOSUNNY   82  69  64 W9G18     29.82F HX  85
$$

ILZ079-100>102-302200-
SOUTHWEST ILLINOIS

CITY           SKY/WX    TMP DP  RH WIND       PRES   REMARKS
ALTON          CLOUDY    82  72  69 W14       29.87S HX  87
BELLEVILLE     MOSUNNY   83  69  61 W12       29.85F HX  87
CAHOKIA*       SUNNY     85  65  51 W8        29.86F HX  86
SPARTA*        SUNNY     83  66  55 W10       29.88F HX  85
$$

ILZ064>066-069>071-074>076-080>082-084>086-088>090-092>094-302200-
SOUTH-CENTRAL ILLINOIS

CITY           SKY/WX    TMP DP  RH WIND       PRES   REMARKS
CARBONDALE     SUNNY     83  65  54 W7        29.87F HX  85
CAIRO*         SUNNY     85  67  54 W6        29.88S HX  88
EFFINGHAM*     SUNNY     83  61  47 SW15      29.86S HX  83
MARION         CLOUDY    82  68  61 W9        29.88F HX  85
MT. VERNON     SUNNY     82  66  57 W7        29.87S HX  85
CENTRALIA*     SUNNY     82  65  56 W9        29.87S HX  83
SALEM*         SUNNY     83  65  53 W10       29.86F HX  85
METROPOLIS*    SUNNY     84  68  57 W8        29.89S HX  87
$$

ILZ067-068-072-073-078-083-087-091-302200-
SOUTHEAST ILLINOIS

CITY           SKY/WX    TMP DP  RH WIND       PRES   REMARKS
LAWRENCEVILLE  MOSUNNY   84  67  56 W14       29.83F HX  86
FLORA*         SUNNY     82  66  58 W9        29.86S HX  84
FAIRFIELD*     SUNNY     82  69  64 W6        29.84F HX  85
HARRISBURG*    SUNNY     82  67  60 W9        29.88F HX  84
ROBINSON*      MOSUNNY   83  67  59 W13       29.83F HX  85
CARMI*         SUNNY     83  62  49 W10G16    29.86S HX  83
$$

ABBREVIATIONS USED IN REMARKS
   TC - TEMPERATURE IN CELSIUS
  WCI - WIND CHILL INDEX
   HX - HEAT INDEX
  VSB - VISIBILITY
$$



USA.gov is the U.S. government's official web portal to all federal, state and local government web resources and services.